This is the latest recevied weather packets stored in our database for station/object N9OJR. If no packets are shown the sender has not sent any weather packets the latest 10 day(s).
| Time | Temp. | Humidity | Pressure | Rain* | Wind** | Luminosity | Snow |
|---|---|---|---|---|---|---|---|
| 1777648273 | 6.67° C | 97% | 1008.5 hPa | 3.05 mm | - | 70 W/m² | - |
| 1777647969 | 6.67° C | 97% | 1008.6 hPa | 1.78 mm | - | 49 W/m² | - |
| 1777647665 | 6.67° C | 97% | 1008.6 hPa | 0 mm | - | 46 W/m² | - |
| 1777647361 | 6.67° C | 97% | 1008.4 hPa | 0 mm | - | 57 W/m² | - |
| 1777647060 | 6.67° C | 96% | 1008.3 hPa | 1.27 mm | - | 73 W/m² | - |
| 1777646755 | 6.67° C | 96% | 1008.4 hPa | 1.27 mm | - | 66 W/m² | - |
| 1777646450 | 6.67° C | 96% | 1008.5 hPa | 1.78 mm | - | 84 W/m² | - |
| 1777646147 | 6.67° C | 97% | 1008.5 hPa | 1.78 mm | - | 147 W/m² | - |
| 1777645844 | 6.67° C | 97% | 1008.8 hPa | 1.27 mm | - | 116 W/m² | - |
| 1777645541 | 6.67° C | 97% | 1008.7 hPa | 1.27 mm | - | 85 W/m² | - |
| 1777645237 | 6.67° C | 97% | 1009 hPa | 1.78 mm | - | 63 W/m² | - |
| 1777644933 | 6.67° C | 97% | 1008.7 hPa | 1.78 mm | - | 47 W/m² | - |
| 1777644631 | 6.67° C | 97% | 1008.7 hPa | 0 mm | - | 58 W/m² | - |
| 1777644327 | 6.67° C | 97% | 1008.5 hPa | 1.78 mm | - | 61 W/m² | - |
| 1777644023 | 6.11° C | 97% | 1008.4 hPa | 1.78 mm | - | 39 W/m² | - |
| 1777643720 | 6.11° C | 97% | 1008.7 hPa | 1.27 mm | - | 53 W/m² | - |
| 1777643418 | 6.67° C | 98% | 1008.6 hPa | 3.05 mm | - | 53 W/m² | - |
| 1777643114 | 6.67° C | 98% | 1008.9 hPa | 1.78 mm | - | 66 W/m² | - |
| 1777642811 | 6.67° C | 98% | 1008.8 hPa | 0 mm | - | 81 W/m² | - |
| 1777642508 | 6.67° C | 98% | 1008.9 hPa | 1.27 mm | - | 80 W/m² | - |
| 1777642204 | 6.11° C | 98% | 1009 hPa | 1.27 mm | - | 56 W/m² | - |
| 1777641901 | 6.11° C | 98% | 1009 hPa | 0 mm | - | 75 W/m² | - |
| 1777641596 | 6.11° C | 98% | 1008.8 hPa | 1.78 mm | - | 52 W/m² | - |
| 1777641296 | 6.11° C | 98% | 1008.8 hPa | 0 mm | - | 67 W/m² | - |
| 1777640993 | 6.11° C | 97% | 1008.8 hPa | 0 mm | - | 72 W/m² | - |
* Rain latest hour (hover to see other rain measurements)
** Current wind speed in m/s (hover to see current wind gust speed)